Location: Unspecified
(48.7670°N, 0.0000°E)
Time: 23:48:32
(UTC+00:00)

Altair - Visible Passes

Search period start: 01 October 2020 00:00
Search period end: 11 October 2020 00:00
Orbit: 1501 x 1682 km, 47.2° (Epoch: 01 October)

Date Brightness Start Highest point End Pass type
(mag) Time Alt. Az. Time Alt. Az. Time Alt. Az.
01 Oct 9.0 19:19:35 10° WNW 19:28:00 31° SW 19:36:18 10° SSE visible
02 Oct 8.9 18:54:17 10° WNW 19:02:54 33° SW 19:11:27 10° SSE visible
03 Oct 8.9 18:28:59 10° WNW 18:37:50 36° SW 18:46:36 10° SSE visible
04 Oct 8.9 18:03:43 10° WNW 18:12:44 38° SW 18:21:41 10° SSE visible
04 Oct 9.9 20:13:41 10° WSW 20:15:11 10° WSW 20:16:41 10° SW visible
05 Oct 9.8 19:46:51 10° WSW 19:50:12 12° WSW 19:53:32 10° SW visible
06 Oct 9.8 19:20:47 10° W 19:25:12 14° WSW 19:29:37 10° SSW visible
07 Oct 9.8 18:54:58 10° W 19:00:12 15° SW 19:05:25 10° SSW visible
08 Oct 9.8 18:29:19 10° W 18:35:11 17° SW 18:41:03 10° SSW visible
09 Oct 9.8 18:03:45 10° W 18:10:10 19° SW 18:16:34 10° SSW visible
10 Oct 9.8 17:38:16 10° W 17:45:08 21° SW 17:52:00 10° S visible
